Location: Bailleul
(50.3375°N, 2.8513°E)
Time: 19:51:42
(UTC+00:00)

Cosmos 2251 Rocket - Pass Details

Date: 19 April 2021
Orbit: 765 x 791 km, 74.0° (Epoch: 18 May)

Event Time Altitude Azimuth Distance (km) Brightness Sun altitude
Rises 19:21:16 0° 176° (S) 3,274 6.5 -5.5°
Reaches altitude 10° 19:23:48 10° 168° (SSE) 2,347 5.7 -5.8°
Maximum altitude 19:28:38 36° 103° (ESE) 1,232 4.1 -6.5°
Drops below altitude 10° 19:33:29 10° 38° (NE) 2,352 5.9 -7.2°
Sets 19:36:01 0° 30° (NNE) 3,280 6.8 -7.6°
